Ellensburg, WA
on Friday, December 28, 2012

Friday
Previous Day Next Day
Daily Summary
 ActualAverage (KYKM)Record (KYKM)
Temperature
Mean Temperature °F 28°F  
Max Temperature 28°F 35°F 57°F (1949)
Min Temperature 19°F 21°F -7°F (1996)
Degree Days
Heating Degree Days 42 37  
Month to date heating degree days 1017  
Since 1 July heating degree days 2550  
Cooling Degree Days 0 0  
Month to date cooling degree days 0  
Year to date cooling degree days 472  
Moisture
Dew Point 21°F   
Average Humidity 84    
Maximum Humidity 93    
Minimum Humidity 78    
Precipitation
Precipitation 0.00 in 0.05 in 0.41 in (2005)
Month to date precipitation 1.40  
Year to date precipitation 8.12  
Snow
Snow 0.00 in 0.30 in 3.80 in (1971)
Month to date snowfall 8.6  
Year to date snowfall 20.8  
Since 1 July snowfall 12.2  
Snow Depth in   
Wind
Wind Speed 1 mph   
Max Wind Speed 6 mph   
Max Gust Speed mph   
Visibility 2 miles   
Events Fog , Snow   

Key: T is trace of precipitation, MM is missing value
Source: NWS Daily Summary
Time(PST)TemperatureDew PointHumidity Pressure Visibility Wind DirectionWind SpeedGust SpeedPrecipitationEvents Conditions
12:53 AM 21.9°F 19.0°F 89% 30.20 in 0.2 miles Calm Calm - N/A Fog Light Freezing Fog
1:53 AM 21.9°F 18.0°F 85% 30.21 in 0.2 miles Calm Calm - N/A Fog Light Freezing Fog
2:53 AM 21.0°F 17.1°F 85% 30.22 in 0.2 miles SSE 3.5 mph - N/A Fog Light Freezing Fog
3:53 AM 19.9°F 17.1°F 89% 30.22 in 0.2 miles Calm Calm - N/A Fog Light Freezing Fog
4:53 AM 19.0°F 15.1°F 85% 30.22 in 0.2 miles Calm Calm - N/A Fog Light Freezing Fog
5:53 AM 19.9°F 16.0°F 85% 30.22 in 0.2 miles Calm Calm - N/A Fog Light Freezing Fog
6:53 AM 19.9°F 15.1°F 81% 30.23 in 0.2 miles Calm Calm - N/A   Haze
7:53 AM 19.9°F 16.0°F 85% 30.24 in 0.2 miles Calm Calm - N/A Fog Light Freezing Fog
8:53 AM 21.0°F 17.1°F 85% 30.25 in 0.2 miles Calm Calm - N/A Fog Light Freezing Fog
9:53 AM 21.9°F 19.9°F 92% 30.26 in 0.5 miles Calm Calm - N/A Fog Light Freezing Fog
10:53 AM 23.0°F 19.9°F 88% 30.25 in 0.5 miles Calm Calm - N/A Fog Light Freezing Fog
11:53 AM 24.1°F 19.9°F 84% 30.24 in 0.2 miles Calm Calm - N/A Fog Light Freezing Fog
12:53 PM 25.0°F 21.9°F 88% 30.23 in 0.5 miles Calm Calm - N/A Fog Light Freezing Fog
1:36 PM 26.6°F 21.2°F 80% 30.16 in 2.5 miles North 3.5 mph - N/A   Haze
1:40 PM 26.6°F 21.2°F 80% 30.16 in 3.0 miles Calm Calm - N/A   Haze
1:53 PM 27.0°F 21.9°F 81% 30.23 in 3.0 miles West 3.5 mph - N/A   Haze
2:30 PM 26.6°F 21.2°F 80% 30.17 in 2.5 miles West 3.5 mph - N/A   Haze
2:50 PM 26.6°F 21.2°F 80% 30.17 in 3.0 miles NW 3.5 mph - N/A   Haze
2:53 PM 27.0°F 21.9°F 81% 30.24 in 3.0 miles NW 3.5 mph - N/A   Haze
3:53 PM 27.0°F 23.0°F 85% 30.25 in 3.0 miles WNW 5.8 mph - 0.00 in Snow Light Snow
4:53 PM 27.0°F 23.0°F 85% 30.26 in 6.0 miles NW 5.8 mph - 0.00 in   Overcast
5:53 PM 27.0°F 23.0°F 85% 30.25 in 5.0 miles NNW 4.6 mph - N/A   Overcast
6:53 PM 28.0°F 24.1°F 85% 30.26 in 5.0 miles Calm Calm - N/A   Overcast
7:08 PM 28.4°F 24.8°F 86% 30.19 in 6.0 miles Calm Calm - N/A   Haze
7:26 PM 28.4°F 24.8°F 86% 30.19 in 4.0 miles SSW 4.6 mph - N/A   Overcast
7:53 PM 28.0°F 24.1°F 85% 30.27 in 2.5 miles SE 3.5 mph - N/A   Overcast
8:12 PM 26.6°F 23.0°F 86% 30.19 in 1.8 miles Calm Calm - N/A   Overcast
8:30 PM 26.6°F 24.8°F 93% 30.19 in 2.0 miles Calm Calm - N/A   Overcast
8:53 PM 28.0°F 23.0°F 81% 30.26 in 2.5 miles Calm Calm - N/A   Haze
9:05 PM 28.4°F 24.8°F 86% 30.19 in 3.0 miles Calm Calm - N/A   Overcast
9:20 PM 28.4°F 23.0°F 80% 30.19 in 4.0 miles Calm Calm - N/A   Haze
9:53 PM 27.0°F 23.0°F 85% 30.26 in 4.0 miles Calm Calm - N/A   Overcast
10:30 PM 26.6°F 23.0°F 86% 30.20 in 2.0 miles Calm Calm - N/A   Overcast
10:34 PM 26.6°F 23.0°F 86% 30.20 in 1.0 miles Calm Calm - N/A   Overcast
10:42 PM 28.4°F 23.0°F 80% 30.20 in 0.8 miles Calm Calm - N/A   Haze
10:48 PM 28.4°F 23.0°F 80% 30.20 in 1.2 miles North 3.5 mph - N/A   Haze
10:53 PM 28.0°F 21.9°F 78% 30.27 in 5.0 miles North 5.8 mph - N/A   Haze
11:53 PM 27.0°F 21.9°F 81% 30.25 in 5.0 miles SW 3.5 mph - N/A   Haze
Moon Phase
Dec. 28 Jan. 04 Jan. 11 Jan. 18 Jan. 26
Sunrise:07:47 AM (PST) Moon Rise:05:06 PM (PST)12/28
Sunset:04:20 PM (PST) Moon Set:07:41 AM (PST)12/28

Copyright © 2014 The Weather Underground, Inc.